Regional Weather Roundup
Issued by NWS

Home | Current Version | Previous Version | Text Only | Print | Product List | Glossary Off
Versions: 1 2 3 4 5 6 7 8 9 10 11 12 13 14 15 16 17 18 19 20 21 22 23 24 25 26 27 28 29 30 31 32 33 34 35 36 37 38 39 40 41 42 43 44 45 46 47 48 49 50

000
ASUS43 KOAX 202110
RWRNE

WEATHER ROUNDUP FOR NEBRASKA
NATIONAL WEATHER SERVICE OMAHA NE
400 PM CDT SAT SEP 20 2014

NOTES: SATELLITE DATA IS BEING USED TO AUGMENT CLOUD COVER ABOVE
       12000 FEET.
       "FAIR" INDICATES FEW OR NO CLOUDS BELOW 12,000 FEET WITH NO
       SIGNIFICANT WEATHER AND/OR OBSTRUCTIONS TO VISIBILITY.

  * THESE STATIONS DO NOT REPORT WEATHER SUCH AS RAIN...SNOW OR FOG.

NEZ001>004-019>022-054>056-202200-
NEBRASKA PANHANDLE

CITY           SKY/WX    TMP DP  RH WIND       PRES   REMARKS
SCOTTSBLUFF    SUNNY     85  45  24 NW9G22    30.16F
ALLIANCE       SUNNY     82  45  27 N16G26    30.15S
CHADRON        SUNNY     82  43  25 NW24G35   30.13F
KIMBALL        MOSUNNY   80  44  27 NE7       30.20F
SIDNEY         SUNNY     82  46  28 NE9G16    30.20S
$$

NEZ057>060-069>072-079>082-202200-
SOUTHWEST NEBRASKA

CITY           SKY/WX    TMP DP  RH WIND       PRES   REMARKS
NORTH PLATTE   SUNNY     84  51  31 NW12G17   30.06F
IMPERIAL       SUNNY     86  47  25 N10       30.11F
LEXINGTON      SUNNY     85  50  29 N8        30.04F
MCCOOK         SUNNY     87  49  26 VRB6      30.06F
OGALLALA       SUNNY     85  49  29 NW12      30.11F
$$

NEZ005>010-023>029-035>040-094-202200-
NORTH CENTRAL NEBRASKA

CITY           SKY/WX    TMP DP  RH WIND       PRES   REMARKS
VALENTINE      SUNNY     82  43  25 NW24G32   30.07R
AINSWORTH      SUNNY     80  45  29 NW21G36   30.06R
BROKEN BOW     SUNNY     87  47  24 NW18G28   30.04S
O`NEILL        MOSUNNY   82  51  34 NW17G24   30.00S
ORD            SUNNY     84  51  31 NW13      29.99F
THEDFORD       SUNNY     85  50  29 NW14      30.08S
$$

NEZ041-046>049-061>064-073>077-083>087-202200-
SOUTH CENTRAL NEBRASKA

CITY           SKY/WX    TMP DP  RH WIND       PRES   REMARKS
GRAND ISLAND   SUNNY     86  52  30 NW10      30.00S
AURORA         SUNNY     84  47  27 N6        29.99S
HASTINGS       SUNNY     85  47  26 N8        30.00F
HEBRON         SUNNY     87  50  27 CALM      29.96S
HOLDREGE       SUNNY     83  50  31 N7        30.04S
KEARNEY *      SUNNY     84  52  32 NW12      30.03F
YORK           SUNNY     82  63  51 W8        29.98S
$$

NEZ011>018-030>034-042>045-202200-
NORTHEAST NEBRASKA

CITY           SKY/WX    TMP DP  RH WIND       PRES   REMARKS
NORFOLK        SUNNY     84  53  34 NW14      29.95F
ALBION         SUNNY     84  47  27 NW14G20   29.99S
BLAIR          SUNNY     84  55  36 W7        29.93S
COLUMBUS *     SUNNY     82  55  39 W10       29.97S
FREMONT        SUNNY     85  53  32 W16       29.94S
TEKAMAH        SUNNY     85  57  38 NW9       29.91F
WAYNE          SUNNY     83  54  36 NW14G21   29.93F
$$

NEZ050>053-065>068-078-088>093-202200-
SOUTHEAST NEBRASKA

CITY           SKY/WX    TMP DP  RH WIND       PRES   REMARKS
LINCOLN        SUNNY     87  55  33 NW13      29.95S
OMAHA EPPLEY   MOSUNNY   85  57  38 W9        29.91S
BEATRICE       SUNNY     87  60  39 W6        29.94S
FALLS CITY     PTSUNNY   81  70  69 W10       29.91F
NEBRASKA CITY    N/A     83  55  37 NW8       29.93S
PLATTSMOUTH    SUNNY     84  62  46 W10       29.92S
$$

NEZ044-045-051>053-067-202200-
OMAHA AREA

CITY           SKY/WX    TMP DP  RH WIND       PRES   REMARKS
OMAHA EPPLEY   MOSUNNY   85  57  38 W9        29.91S
BLAIR          SUNNY     84  55  36 W7        29.93S
FREMONT        SUNNY     85  53  32 W16       29.94S
MILLARD        SUNNY     84  58  41 W10G17    29.91F
OFFUTT AFB     SUNNY     86  62  44 NW10      29.91S
PLATTSMOUTH    SUNNY     84  62  46 W10       29.92S
WAHOO          FAIR      85  53  33 NW8       29.94S
$$



USA.gov is the U.S. government's official web portal to all federal, state and local government web resources and services.